Regional Weather Roundup
Issued by NWS Portland, ME

Current Version | Previous Version | Text Only | Print | Product List | Glossary Off
Versions: 1 2 3 4 5 6 7 8 9 10 11 12 13 14 15 16 17 18 19 20 21 22 23 24 25 26 27 28 29 30 31 32 33 34 35 36 37 38 39 40 41 42 43 44 45 46 47 48 49 50
000 ASUS41 KGYX 201405 RWRGYX WEATHER ROUNDUP FOR MAINE AND NEW HAMPSHIRE NATIONAL WEATHER SERVICE GRAY ME 1000 AM EDT THU SEP 20 2018 MEZ002-005-006-010-012-015-018-020-021-024-026-027-029-201500- MAINE CITY SKY/WX TMP DP RH WIND PRES REMARKS PORTLAND CLOUDY 59 54 83 VRB7 30.29R SANFORD CLOUDY 59 55 87 NE7 30.29R BAR HARBOR PTSUNNY 56 48 74 E7 30.30R WISCASSET CLOUDY 58 52 80 E3 30.31R ROCKLAND CLOUDY 54 50 86 NE8 30.31R FRYEBURG CLOUDY 59 51 75 CALM 30.28S LEWISTONAUBURN CLOUDY 57 52 83 E6 30.29S AUGUSTA CLOUDY 55 48 77 NE6 30.30R WATERVILLE CLOUDY 53 47 79 NE5 30.28R BANGOR CLOUDY 52 47 83 CALM 30.32R GREENVILLE N/A 50 46 86 VRB5 30.26R MILLINOCKET CLOUDY 52 45 77 CALM 30.32R HOULTON CLOUDY 51 44 77 E6 30.30R PRESQUE ISLE LGT RAIN 49 45 86 E3 30.31R FRENCHVILLE CLOUDY 49 43 80 CALM 30.29R CARIBOU CLOUDY 51 42 71 VRB3 30.29S $$ NHZ002-005-008-009-011-012-014-201500- NEW HAMPSHIRE CITY SKY/WX TMP DP RH WIND PRES REMARKS ROCHESTER CLOUDY 58 55 90 VRB5 30.28R NASHUA CLOUDY 60 55 83 NE5 30.29R MANCHESTER CLOUDY 61 54 77 NE9 30.27R CONCORD CLOUDY 60 55 83 CALM 30.28R LACONIA CLOUDY 60 52 74 E6 30.27S PLYMOUTH CLOUDY 60 53 76 CALM 30.27R BERLIN CLOUDY 58 51 78 CALM 30.27R WHITEFIELD CLOUDY 58 52 80 CALM 30.27R JAFFREY CLOUDY 58 56 93 VRB3 30.28R FOG KEENE CLOUDY N/A N/A N/A NE6 30.27R LEBANON CLOUDY 59 51 75 CALM 30.27R MT WASHINGTON FOG 37 37 100 W15 N/A VSB 3/16 $$ VTZ005-007-008-201500- VERMONT CITY SKY/WX TMP DP RH WIND PRES REMARKS ST JOHNSBURY N/A 59 54 83 MISG 30.25R MONTPELIER CLOUDY 56 53 90 E3 30.31R BURLINGTON CLOUDY 59 52 77 N8 30.27R $$ MAZ007-012-024-CTZ003-RIZ002-NYZ038-NYZ072-201500- SOUTHERN NEW ENGLAND AND NY CITY SKY/WX TMP DP RH WIND PRES REMARKS BOSTON PTSUNNY 65 56 72 NE13 30.26R WORCESTER CLOUDY 57 53 86 NE7 30.27R NANTUCKET FAIR 67 58 72 NE14 30.18R PROVIDENCE PTSUNNY 67 58 72 N12 30.23R HARTFORD CLOUDY 64 54 69 NE9 30.25R ALBANY CLOUDY 60 52 74 NE6 30.27R NEW YORK CITY CLOUDY 67 56 67 E7 30.22R $$ ANZ081-ANZ082-ANZ150-NHZ014-MEZ023>029-201500- COASTAL MARINE OBSERVATIONS STATION/POSITION TIME TEMP WIND PRES WAVE AIR SEA DIR/SP/G HT/PER (UTC) (F) (DEG/KT/KT) (MB) (FT/S) MOUNT DESERT ROC 1300 54 20/ 19/ 21 1024.1R MATINICUS ROCK 1300 54 40/ 18/ 19 1024.2R ISLE OF SHOALS 1300 58 60/ 17/ 18 1023.6R JEFFREYS LEDGE 1336 65 N/A 5/ 7 $$ .............KEY.............. WCI - WIND CHILL TC - TEMPERATURE IN CELSIUS VSB - VISIBILITY IN MILES HX - HEAT INDEX FAIR- INDICATES FEW OR NO CLOUDS BELOW 12,000 FT, WITH NO SIGNIFICANT WEATHER AND/OR OBSTRUCTIONS TO VISIBILITY.

USA.gov is the U.S. government's official web portal to all federal, state and local government web resources and services.